Temp
15 15 15 14 14 14 13 12 12 11 11 10 10 9 9 9 9 9 9 8 8 7 7 6 6 6 5 5 6 6 6 6 6 6 6 6 6 6 6 6 6 6 6 6 6 6 5 6 6
15 15 15 15 14 14 13 13 12 12 11 11 10 10 9 10 10 10 9 8 7 7 6 6 6 6 6 5 5 6 6 7 6 6 6 6 6 6 6 5 5 5 6 6 6 5 5 5 5
15 15 15 15 14 14 13 13 12 12 11 11 10 10 10 10 10 9 8 8 8 7 6 6 6 6 6 6 6 6 6 6 6 6 6 6 5 5 5 5 5 5 5 5 5 5 5 5 5
15 15 15 14 14 13 13 13 12 12 11 10 10 10 10 10 9 9 8 8 8 7 7 7 7 6 6 6 6 6 6 5 6 6 6 5 5 5 5 5 5 5 5 5 5 5 5 5 5
15 15 15 14 14 14 13 13 12 12 12 11 10 10 11 10 10 9 8 8 7 7 7 7 7 6 6 6 6 6 6 5 5 5 5 5 5 4 5 5 5 4 4 5 5 5 5 5 5
15 15 14 14 13 13 13 12 12 12 11 11 11 11 10 10 9 9 8 8 8 7 7 6 6 6 6 6 5 5 5 5 5 4 4 4 4 4 4 4 5 5 5 5 5 5 5 5 5
15 15 14 13 13 13 13 12 12 12 11 11 11 10 10 10 10 8 8 7 7 6 6 6 6 6 5 5 4 5 4 4 4 4 4 3 3 3 4 4 4 5 5 5 5 5 5 5 5
14 14 13 13 13 12 13 12 11 11 11 11 11 10 10 10 9 8 7 7 7 6 6 6 6 5 5 5 5 4 4 4 4 4 4 3 3 3 3 4 4 5 5 5 5 5 5 5 5
13 13 13 12 12 12 12 12 11 11 10 10 10 10 10 9 9 8 7 7 7 6 6 6 5 5 5 5 5 4 4 4 3 4 4 3 3 3 4 4 5 5 5 5 5 5 5 5 5
13 13 13 12 12 12 12 11 11 11 11 10 10 10 10 9 8 8 7 7 7 7 6 6 5 5 5 5 4 4 4 4 3 3 4 3 3 4 4 5 5 5 5 5 5 5 5 4 4
12 12 12 12 12 12 11 11 11 11 10 10 9 9 10 9 8 8 7 7 7 6 6 5 5 5 5 5 4 4 3 3 3 3 3 4 4 5 5 5 5 5 5 5 5 5 5 5 5
12 12 12 12 11 11 11 11 11 10 10 9 9 9 9 9 8 7 7 7 7 6 5 5 5 5 5 4 4 3 3 3 3 3 4 4 5 5 5 5 5 5 5 5 5 5 5 5 4
12 12 12 12 12 11 11 10 10 10 10 10 10 9 9 9 8 8 7 7 7 6 5 5 5 5 5 4 4 3 3 3 3 4 4 5 5 5 5 5 4 4 5 5 5 5 5 4 4
12 12 12 12 12 11 11 10 10 11 10 10 10 9 9 8 8 8 7 7 6 5 5 5 5 5 5 4 4 3 3 3 3 4 4 5 5 4 4 5 5 5 5 5 5 5 4 4 4
12 12 12 12 12 11 10 10 10 10 10 10 10 9 9 9 8 8 7 6 6 5 5 5 5 5 5 4 4 4 4 4 4 4 4 4 4 4 4 4 5 5 5 4 4 4 4 4 3
11 11 11 11 11 10 10 11 10 10 10 10 10 10 10 9 9 8 7 6 6 5 5 5 5 5 5 4 4 4 4 4 4 4 4 4 4 4 4 4 5 4 4 4 4 4 3 3 3
11 11 11 10 10 10 9 10 10 10 10 10 10 10 10 9 9 8 7 7 6 5 5 5 5 5 5 4 4 4 4 4 4 4 4 3 4 4 4 4 4 4 4 4 3 3 3 3 2
9 9 10 10 9 9 8 10 10 10 10 10 9 9 9 9 9 8 7 7 6 6 5 5 5 5 5 4 4 4 4 3 3 3 3 3 3 4 4 3 4 4 4 3 3 3 2 2 2
9 9 8 10 9 8 9 9 10 10 10 10 10 9 10 9 8 8 8 7 6 6 5 5 5 5 4 4 4 3 3 3 3 3 3 3 3 3 3 3 3 3 3 3 3 3 2 2 1
8 8 9 9 9 8 8 9 9 10 10 11 10 9 10 8 8 8 8 8 7 6 5 5 5 5 4 4 4 3 3 3 3 2 2 2 2 2 3 3 3 3 3 3 3 2 2 2 1
8 8 9 8 8 8 8 8 9 9 10 10 11 10 9 9 9 8 8 8 7 6 6 5 4 4 4 4 4 4 3 3 2 2 2 2 2 2 2 2 2 2 2 2 2 2 2 1 1
8 8 8 7 7 7 8 9 8 9 9 10 10 10 10 10 10 8 8 7 7 7 6 5 4 4 4 4 4 3 3 2 2 2 1 1 1 1 1 1 2 2 2 2 2 1 1 1 1
7 7 7 7 7 6 7 7 8 8 9 10 10 10 10 10 10 10 9 7 6 5 5 5 4 4 4 4 4 3 3 2 2 2 1 1 1 1 1 1 1 1 2 1 1 1 1 1 0
6 6 6 6 7 7 7 7 9 8 9 9 10 10 10 10 10 10 9 7 6 5 5 6 5 4 4 4 3 3 2 2 2 2 1 1 1 1 1 1 1 1 1 1 1 1 1 0 -1
6 6 5 6 6 8 8 7 8 8 9 9 9 9 9 9 10 10 10 9 7 6 6 6 5 5 4 4 3 3 3 2 2 2 1 1 1 1 1 1 0 0 0 0 0 0 0 0 -0
7 6 6 6 7 8 7 7 8 8 9 9 9 9 9 9 9 9 9 9 7 7 6 6 5 5 4 4 3 3 3 2 2 1 1 1 1 1 0 0 -0 0 -0 -0 -0 -0 -0 -0 -1
7 7 6 6 5 5 6 6 7 8 8 8 9 9 9 9 9 9 9 9 7 7 6 6 5 5 4 4 3 3 3 3 2 1 1 1 1 0 0 -0 -0 -1 -1 -1 -0 -1 -0 -1 -1
7 6 6 6 6 6 7 6 7 8 8 8 8 9 9 8 8 8 8 9 8 7 6 5 5 5 4 4 4 3 3 2 2 2 1 1 1 1 0 -0 -0 -1 -1 -1 -2 -1 -1 -1 -2
6 6 6 6 6 6 6 7 7 7 8 8 8 8 8 8 8 8 8 8 7 6 6 5 5 4 4 4 4 3 3 2 2 2 1 1 1 1 -0 -0 -1 -1 -1 -1 -2 -2 -2 -1 -2
6 6 6 5 5 6 5 5 6 7 7 7 8 8 8 8 8 7 8 7 7 7 6 6 5 5 4 4 4 3 3 2 2 2 1 1 1 0 0 -1 -1 -1 -1 -1 -2 -2 -2 -2 -2
Height
3192 3192 3192 3193 3197 3194 3195 3198 3198 3197 3198 3198 3198 3197 3199 3197 3197 3200 3197 3198 3200 3201 3203 3204 3205 3206 3207 3207 3207 3207 3207 3207 3207 3207 3207 3207 3207 3206 3205 3205 3205 3205 3205 3204 3204 3203 3202 3202 3202
3192 3192 3193 3193 3194 3194 3197 3197 3197 3197 3197 3197 3198 3198 3198 3197 3196 3197 3197 3199 3200 3201 3203 3204 3205 3206 3207 3207 3207 3208 3208 3206 3207 3207 3207 3207 3206 3206 3205 3205 3205 3206 3205 3205 3204 3203 3203 3202 3202
3192 3192 3194 3193 3193 3194 3196 3196 3196 3197 3197 3198 3199 3199 3198 3197 3197 3197 3198 3199 3199 3201 3202 3203 3205 3206 3206 3207 3207 3207 3208 3207 3206 3207 3206 3206 3206 3206 3206 3205 3205 3205 3205 3204 3204 3203 3202 3201 3200
3192 3193 3194 3193 3193 3194 3195 3196 3197 3197 3198 3199 3199 3200 3199 3198 3197 3197 3198 3198 3199 3200 3201 3203 3205 3206 3206 3206 3207 3206 3206 3207 3206 3206 3206 3206 3205 3205 3205 3205 3204 3204 3203 3204 3203 3202 3201 3200 3199
3192 3193 3193 3193 3193 3194 3195 3196 3197 3198 3198 3199 3200 3199 3199 3198 3197 3196 3197 3198 3198 3200 3201 3203 3204 3204 3205 3206 3207 3206 3206 3206 3206 3205 3205 3205 3205 3204 3203 3205 3204 3203 3202 3203 3203 3202 3200 3198 3197
3192 3192 3193 3194 3194 3194 3195 3196 3197 3198 3199 3199 3200 3199 3199 3197 3196 3196 3197 3198 3199 3200 3201 3202 3203 3204 3205 3206 3206 3205 3205 3205 3204 3204 3204 3203 3203 3203 3203 3204 3203 3202 3200 3201 3201 3199 3198 3197 3195
3191 3191 3193 3195 3196 3196 3196 3197 3198 3199 3199 3199 3199 3198 3199 3197 3196 3196 3197 3198 3199 3200 3201 3202 3203 3204 3205 3205 3205 3204 3204 3203 3203 3203 3202 3200 3201 3201 3202 3202 3201 3201 3199 3199 3198 3197 3196 3195 3193
3192 3192 3194 3195 3196 3197 3197 3197 3198 3199 3199 3199 3198 3197 3197 3197 3197 3196 3196 3197 3198 3199 3201 3202 3203 3203 3204 3203 3204 3202 3202 3202 3201 3201 3199 3196 3199 3201 3201 3201 3201 3200 3199 3198 3197 3196 3194 3193 3192
3193 3194 3194 3195 3196 3197 3196 3197 3198 3198 3198 3197 3197 3196 3196 3196 3196 3196 3196 3197 3197 3199 3200 3201 3202 3203 3203 3203 3202 3201 3200 3199 3199 3199 3198 3197 3197 3199 3199 3200 3199 3198 3197 3196 3194 3193 3192 3191 3190
3193 3194 3195 3195 3195 3195 3195 3196 3197 3197 3196 3196 3196 3195 3195 3195 3196 3196 3196 3196 3197 3198 3199 3200 3201 3201 3201 3201 3201 3199 3198 3198 3198 3198 3198 3198 3198 3198 3197 3197 3196 3194 3194 3193 3192 3191 3190 3190 3188
3192 3193 3194 3194 3193 3193 3194 3195 3195 3195 3196 3195 3195 3194 3193 3192 3193 3194 3195 3195 3196 3198 3199 3199 3199 3200 3200 3199 3198 3197 3196 3197 3197 3196 3197 3198 3198 3197 3197 3196 3195 3193 3192 3191 3190 3189 3188 3187 3185
3192 3192 3192 3192 3191 3191 3191 3192 3192 3192 3193 3193 3193 3193 3192 3192 3192 3192 3193 3194 3196 3198 3199 3198 3198 3198 3199 3197 3195 3194 3194 3195 3195 3195 3195 3195 3196 3196 3196 3194 3192 3190 3189 3188 3187 3186 3185 3185 3184
3189 3190 3189 3189 3189 3188 3188 3188 3188 3189 3190 3190 3190 3191 3190 3190 3191 3191 3191 3193 3195 3196 3197 3197 3197 3197 3196 3195 3193 3193 3193 3192 3193 3193 3193 3194 3193 3193 3193 3192 3190 3189 3188 3186 3185 3184 3184 3183 3182
3188 3188 3187 3186 3186 3186 3186 3185 3186 3186 3187 3187 3188 3188 3188 3188 3189 3190 3190 3191 3193 3194 3194 3195 3195 3195 3195 3193 3192 3191 3192 3192 3193 3191 3191 3191 3192 3192 3190 3189 3188 3187 3185 3184 3183 3182 3182 3180 3179
3184 3185 3184 3184 3183 3183 3184 3183 3182 3184 3184 3185 3185 3186 3187 3187 3187 3188 3189 3189 3190 3191 3192 3193 3193 3193 3192 3191 3191 3190 3191 3193 3193 3191 3190 3190 3189 3189 3189 3188 3187 3185 3184 3183 3182 3180 3179 3179 3177
3181 3181 3180 3180 3180 3180 3181 3179 3180 3181 3181 3182 3182 3182 3183 3183 3183 3184 3185 3186 3188 3189 3189 3189 3189 3190 3190 3189 3189 3190 3189 3191 3192 3191 3189 3187 3187 3186 3187 3186 3186 3184 3184 3182 3180 3179 3178 3177 3175
3178 3178 3177 3177 3176 3177 3178 3178 3178 3177 3177 3178 3178 3178 3177 3178 3179 3180 3181 3182 3184 3186 3186 3186 3187 3187 3187 3188 3187 3188 3189 3189 3189 3189 3188 3186 3185 3185 3184 3184 3184 3184 3182 3181 3179 3178 3176 3175 3173
3174 3175 3175 3175 3174 3173 3173 3174 3174 3174 3174 3173 3174 3175 3174 3174 3175 3177 3178 3179 3180 3182 3183 3184 3184 3185 3185 3185 3186 3186 3186 3186 3187 3187 3186 3185 3184 3183 3182 3182 3182 3181 3180 3179 3177 3176 3174 3173 3171
3171 3171 3170 3172 3171 3168 3168 3168 3169 3169 3167 3165 3167 3168 3170 3171 3172 3173 3173 3174 3176 3178 3179 3180 3181 3182 3182 3182 3183 3183 3183 3183 3184 3184 3184 3184 3182 3181 3180 3179 3180 3179 3178 3176 3174 3174 3172 3170 3169
3168 3167 3167 3167 3166 3164 3162 3162 3164 3164 3163 3161 3160 3162 3165 3166 3167 3168 3169 3170 3172 3174 3175 3176 3177 3178 3180 3180 3180 3181 3180 3180 3181 3182 3182 3182 3181 3180 3178 3178 3176 3175 3174 3173 3172 3171 3169 3167 3166
3164 3164 3164 3164 3162 3159 3156 3152 3154 3157 3158 3157 3154 3156 3158 3160 3161 3163 3165 3166 3168 3169 3171 3173 3174 3175 3176 3177 3177 3178 3178 3178 3179 3180 3180 3180 3179 3178 3177 3175 3174 3172 3171 3170 3169 3168 3166 3165 3163
3161 3162 3161 3159 3158 3156 3156 3144 3149 3151 3151 3150 3150 3150 3151 3153 3154 3155 3157 3160 3162 3164 3165 3167 3169 3170 3172 3173 3174 3175 3176 3176 3177 3177 3177 3177 3177 3176 3175 3173 3172 3170 3168 3167 3165 3163 3163 3162 3160
3159 3158 3157 3155 3153 3151 3149 3147 3142 3143 3143 3144 3145 3145 3145 3145 3146 3147 3150 3155 3156 3158 3160 3163 3164 3166 3167 3169 3170 3171 3172 3173 3174 3174 3174 3175 3175 3174 3173 3172 3170 3169 3168 3164 3162 3161 3160 3159 3158
3155 3155 3154 3150 3150 3143 3140 3143 3137 3138 3137 3138 3138 3138 3138 3138 3138 3140 3143 3148 3149 3149 3151 3154 3157 3160 3162 3164 3165 3166 3168 3170 3171 3171 3171 3172 3172 3172 3171 3170 3168 3168 3166 3164 3162 3160 3159 3157 3154
3151 3153 3152 3146 3144 3137 3135 3135 3131 3130 3132 3132 3131 3131 3132 3132 3131 3133 3135 3137 3141 3142 3143 3146 3149 3153 3156 3159 3161 3162 3164 3165 3167 3167 3167 3168 3169 3169 3168 3167 3166 3165 3164 3163 3160 3158 3156 3154 3152
3148 3150 3151 3144 3138 3135 3137 3130 3126 3126 3127 3128 3127 3127 3127 3127 3126 3126 3126 3127 3131 3134 3136 3139 3142 3146 3150 3154 3156 3157 3158 3160 3162 3163 3163 3164 3164 3164 3163 3163 3163 3162 3160 3158 3156 3156 3155 3151 3148
3145 3145 3146 3142 3139 3134 3127 3123 3122 3120 3119 3123 3123 3122 3123 3123 3122 3118 3116 3116 3120 3125 3130 3131 3136 3140 3144 3148 3150 3152 3153 3155 3157 3159 3159 3160 3160 3159 3159 3158 3157 3156 3154 3152 3152 3151 3148 3146 3143
3141 3141 3141 3141 3136 3126 3118 3119 3118 3118 3119 3119 3118 3118 3118 3116 3114 3111 3109 3108 3110 3117 3121 3124 3128 3134 3139 3142 3144 3146 3148 3149 3151 3152 3154 3155 3155 3154 3152 3150 3149 3148 3146 3146 3146 3145 3144 3141 3137
3136 3133 3135 3135 3133 3127 3116 3113 3116 3115 3115 3115 3114 3113 3112 3109 3107 3106 3103 3104 3105 3110 3115 3117 3122 3127 3131 3135 3138 3140 3141 3143 3145 3147 3148 3148 3147 3146 3145 3144 3141 3141 3139 3139 3137 3136 3136 3135 3131
3128 3127 3130 3128 3123 3119 3117 3095 3109 3109 3109 3110 3108 3105 3105 3104 3101 3099 3100 3102 3103 3104 3107 3111 3117 3120 3125 3129 3131 3134 3136 3138 3139 3140 3141 3141 3140 3137 3138 3135 3135 3132 3132 3130 3130 3129 3127 3127 3123
Wind_Speed
3 4 3 3 2 5 8 7 10 13 13 10 8 3 0 2 0 2 8 12 12 13 9 7 5 4 3 2 2 3 3 4 3 3 3 3 3 3 4 5 5 6 7 6 6 7 8 7 7
3 3 4 4 3 6 5 10 10 11 11 12 6 2 1 4 6 7 9 12 12 12 10 7 6 5 3 3 4 4 5 3 4 3 3 4 3 3 3 3 4 5 5 6 7 7 7 8 8
4 5 3 2 3 6 4 8 6 8 11 10 6 1 1 6 7 7 7 7 10 10 9 7 5 4 2 2 2 1 5 4 1 4 3 4 3 4 4 3 4 5 7 7 7 8 10 11 11
4 4 3 2 7 6 5 7 4 5 9 9 4 3 2 2 7 7 6 6 7 8 7 5 3 2 2 2 2 1 4 3 2 3 5 5 5 3 6 5 4 4 4 6 8 10 12 13 12
3 2 3 7 7 8 5 7 4 5 6 6 7 1 4 3 6 7 6 6 6 5 4 3 4 3 2 2 2 3 4 5 4 5 6 6 6 4 5 9 4 5 5 7 10 12 14 14 12
3 2 9 8 9 10 6 7 5 9 6 6 4 3 3 6 5 7 6 6 6 6 5 4 4 6 6 3 2 6 4 5 6 6 7 8 8 7 5 7 5 7 7 10 14 14 12 13 13
1 4 11 10 9 9 5 7 6 8 7 7 6 6 5 8 7 8 8 7 7 7 7 5 5 6 4 5 5 5 4 5 8 8 10 9 9 5 6 9 9 10 11 12 12 13 13 14 13
5 6 9 6 5 3 1 4 8 11 10 10 7 6 5 6 8 6 8 8 7 7 7 6 7 7 5 1 3 4 6 9 10 8 11 4 5 5 7 10 11 13 14 13 14 14 14 13 11
3 5 6 3 1 1 2 5 7 9 10 11 9 7 5 9 8 6 7 7 7 7 8 8 5 5 3 3 4 7 7 8 5 3 6 8 4 3 6 10 13 13 15 15 15 14 12 11 11
3 2 1 1 4 4 2 6 6 6 8 9 9 6 7 10 8 7 7 7 8 8 8 6 4 6 4 4 7 9 7 6 2 1 4 2 2 4 5 9 11 14 15 15 14 13 12 11 10
2 1 3 4 4 4 4 5 4 5 8 7 8 7 6 9 11 10 9 10 10 9 7 6 7 7 6 7 10 11 7 4 4 2 3 6 7 7 8 11 13 15 15 14 14 14 14 14 13
6 6 6 7 7 6 5 7 8 6 7 8 9 10 5 9 11 11 10 10 10 8 5 6 6 5 7 10 10 9 6 6 7 2 2 2 5 8 11 13 14 14 15 16 16 15 13 11 9
9 7 8 11 11 9 8 10 11 9 7 7 9 9 7 11 12 14 12 12 11 8 6 5 6 6 7 9 7 5 7 7 8 5 1 3 5 8 12 14 14 14 13 12 11 11 10 10 9
11 12 12 12 11 11 10 13 13 11 8 7 8 10 7 11 13 14 13 14 11 6 7 5 5 6 6 6 4 2 3 6 8 4 2 2 6 9 11 14 14 13 12 11 11 10 9 8 8
10 12 15 14 12 9 8 18 17 15 14 12 9 11 7 9 14 15 14 15 12 7 7 5 5 5 4 3 4 5 4 3 4 2 2 4 6 9 11 11 11 11 11 10 9 9 8 8 7
14 14 12 8 6 8 10 15 11 15 17 17 14 12 10 5 10 14 15 17 13 8 6 6 6 4 3 3 4 5 5 3 4 5 5 5 7 8 9 9 9 8 8 7 6 7 8 8 8
12 11 12 9 9 6 10 10 11 15 18 22 20 16 12 9 8 13 16 17 16 13 8 6 7 5 4 5 6 6 5 4 5 6 7 6 5 5 6 7 7 6 6 6 6 7 8 8 10
9 9 10 11 10 8 13 17 16 18 22 24 23 22 18 14 9 14 17 20 19 17 14 9 8 7 6 6 7 8 6 6 6 6 5 3 2 3 4 4 4 5 6 6 7 8 8 9 9
15 17 18 17 19 19 19 19 16 18 24 26 25 25 22 19 16 16 20 21 23 22 19 13 10 10 8 7 8 9 7 6 5 3 2 1 3 3 4 4 5 5 6 6 7 8 8 9 9
20 20 21 20 18 20 23 23 20 18 18 20 23 25 26 24 22 20 19 20 20 25 23 18 14 13 11 9 9 9 9 7 6 5 3 1 2 2 3 4 6 6 7 8 8 9 9 10 10
18 20 21 22 23 25 27 26 23 19 19 20 24 24 28 28 26 25 22 18 19 23 25 22 17 16 13 11 10 9 9 9 8 5 4 3 3 3 4 5 7 9 9 9 9 10 11 12 13
25 22 24 24 22 16 17 17 15 15 21 22 25 26 27 28 31 31 28 26 25 22 26 26 24 20 16 13 13 12 12 11 9 7 5 3 3 5 5 5 6 8 10 11 11 12 13 13 14
17 22 24 25 23 23 19 16 13 14 16 18 21 21 26 30 30 32 30 27 26 22 26 26 27 24 19 15 16 15 14 12 10 8 6 4 5 6 7 6 7 9 10 10 11 14 15 16 16
22 25 25 29 26 17 26 20 22 27 25 26 28 26 22 23 24 27 31 29 29 30 30 30 29 27 22 18 18 17 15 14 11 9 7 7 7 7 7 7 8 10 11 12 13 14 15 16 16
24 24 9 4 2 6 11 15 25 24 23 20 17 15 17 23 25 24 27 33 32 36 33 32 31 29 25 21 20 19 17 16 15 12 10 10 10 10 9 8 10 12 12 13 13 14 15 17 17
8 11 8 6 5 8 17 12 13 17 18 19 19 16 19 21 22 21 27 33 32 36 31 32 31 29 28 24 20 21 20 18 17 16 14 15 14 15 15 15 14 15 15 16 16 17 18 18 18
6 9 12 21 25 17 15 22 24 23 16 16 19 20 22 21 29 30 27 27 29 32 31 30 29 29 29 25 21 21 21 19 17 18 18 18 19 20 20 21 21 20 19 19 19 19 18 18 18
20 16 6 7 5 10 7 12 14 19 19 23 21 20 23 24 26 27 25 23 29 29 29 29 29 28 28 27 24 21 20 19 20 21 20 20 22 23 24 25 24 25 29 29 23 22 20 21 19
22 22 19 19 16 7 10 10 20 16 14 14 21 26 28 28 24 16 15 21 26 28 31 28 29 29 32 31 28 25 23 22 22 22 23 23 25 26 27 28 30 26 32 29 29 29 17 23 22
27 30 26 21 11 23 21 36 34 21 14 22 29 22 22 22 22 22 22 18 22 25 26 27 28 28 30 30 30 28 25 22 23 23 22 21 24 27 25 28 26 31 37 32 33 30 23 20 23
Wind_Direction
40 77 70 123 73 105 106 117 141 148 154 142 132 95 121 189 276 204 152 152 160 162 164 166 163 164 175 216 278 281 265 265 275 284 296 294 306 328 358 4 10 19 24 22 22 15 15 20 19
90 85 112 106 121 126 112 140 154 159 162 157 137 125 136 115 92 121 139 154 155 157 159 166 175 187 218 283 301 291 263 244 277 268 275 280 284 303 331 360 10 15 16 5 3 5 5 1 360
105 95 108 96 136 122 131 155 151 168 172 174 155 110 171 125 117 115 134 145 139 139 150 170 190 207 228 268 271 272 289 276 271 291 265 259 269 300 316 340 360 4 2 6 359 348 343 336 332
126 127 102 136 161 155 145 172 175 208 190 182 202 243 38 177 116 111 121 132 130 139 152 173 196 207 193 192 213 226 300 318 346 306 279 271 272 292 320 323 348 354 21 348 341 335 336 332 329
136 172 142 131 128 149 143 183 226 213 195 201 206 309 329 188 136 134 145 152 140 132 139 153 153 154 168 169 327 344 340 323 327 291 281 280 273 288 310 299 309 316 343 335 332 327 323 322 318
203 170 135 122 111 119 134 187 227 204 219 224 266 279 285 212 174 150 158 157 142 142 147 142 163 177 175 205 251 303 303 323 337 318 306 282 269 270 246 278 307 333 335 319 318 321 321 317 312
170 133 124 117 115 120 124 179 202 208 255 240 254 255 282 223 206 157 152 152 155 151 146 153 185 183 189 266 280 302 301 325 333 315 320 296 248 211 231 285 302 315 330 323 318 314 315 314 310
142 127 123 117 108 124 61 174 191 221 246 243 245 261 268 266 202 170 163 159 160 154 156 165 181 200 250 239 305 311 293 300 315 315 337 352 210 232 243 275 302 317 329 325 318 316 317 314 313
135 117 117 109 62 324 184 191 202 232 241 246 257 263 268 238 204 188 166 166 162 161 164 173 205 242 234 281 318 322 305 305 303 314 31 73 162 253 277 293 306 325 324 318 316 315 314 314 312
219 144 95 329 269 276 222 199 213 251 273 249 244 259 276 213 212 187 170 169 165 168 176 199 249 237 252 289 304 313 301 299 252 314 16 17 316 294 300 306 318 318 316 316 315 318 315 311 313
326 295 279 304 312 269 239 221 257 259 262 245 238 252 269 212 210 192 180 173 168 173 190 238 263 237 265 284 294 299 290 257 231 233 354 331 319 325 330 322 322 321 319 320 320 322 327 337 338
301 298 291 300 305 283 244 229 245 257 257 229 231 252 219 213 204 194 183 178 173 181 220 247 227 233 281 291 289 288 283 234 233 214 353 336 323 327 329 327 324 323 323 325 329 329 335 343 353
285 283 290 301 302 297 257 233 254 263 255 246 239 245 210 199 199 199 192 179 184 193 223 217 222 251 283 286 280 289 284 229 212 185 264 321 327 335 330 327 323 320 324 331 335 341 346 355 354
275 283 288 300 301 295 267 244 248 268 274 242 256 234 210 193 198 205 202 184 181 195 205 206 233 259 277 266 230 245 37 186 200 192 188 303 332 329 331 325 320 326 335 344 345 340 345 348 344
274 276 283 292 286 270 260 260 253 267 266 255 261 240 225 207 202 201 196 188 187 191 199 213 222 250 278 240 214 184 184 241 229 230 268 318 327 328 325 324 326 334 334 340 336 333 337 340 340
286 286 290 296 252 257 240 272 279 277 270 268 269 255 243 234 212 213 204 197 197 196 201 216 221 245 282 233 201 187 183 228 273 292 300 309 323 327 325 327 329 331 327 324 322 323 328 330 336
288 278 284 285 283 252 242 274 275 283 283 274 268 264 251 244 241 229 222 214 210 213 208 216 230 244 256 235 202 202 205 226 268 285 295 306 317 326 330 332 330 321 320 319 325 330 330 331 336
283 282 272 274 284 268 274 280 282 277 282 283 268 260 251 245 234 230 233 226 225 221 221 225 237 241 249 244 225 216 227 241 248 267 282 298 349 355 348 333 323 317 320 329 333 332 329 332 329
282 279 279 277 286 290 291 280 271 271 269 268 262 257 254 247 230 229 234 230 231 229 227 229 233 242 245 240 233 225 229 222 214 211 249 33 71 59 24 353 338 339 331 330 339 334 333 333 322
282 280 279 287 293 290 301 292 275 272 272 271 259 258 257 248 246 239 242 244 243 235 231 228 229 235 239 241 239 224 213 201 189 173 169 240 316 7 22 359 351 352 343 347 339 335 335 331 329
286 283 293 295 299 289 296 295 280 268 263 270 264 259 251 255 256 248 245 244 253 245 240 233 232 229 235 239 231 219 206 194 193 208 233 258 290 304 307 325 326 337 342 340 340 340 338 334 329
280 291 296 297 297 291 289 286 283 269 268 262 262 265 264 262 259 250 242 239 236 242 243 234 232 230 232 234 222 208 201 203 213 219 218 237 283 293 301 334 339 337 335 338 340 339 338 329 323
282 290 292 291 286 290 272 269 280 266 270 275 282 280 275 267 263 258 254 246 244 243 240 236 232 231 230 229 219 207 203 209 214 210 218 259 319 322 306 319 332 335 334 336 338 338 333 328 326
279 295 288 284 281 265 265 256 272 268 274 285 290 289 271 272 266 265 259 246 243 239 237 232 229 229 227 228 222 210 205 208 216 224 245 277 303 327 339 318 322 325 326 334 336 333 327 319 314
279 279 301 289 236 274 302 269 265 281 287 299 293 281 271 267 260 253 256 257 247 241 237 231 229 227 226 227 223 217 213 212 223 237 254 272 289 305 315 318 317 314 322 327 325 319 313 316 319
288 274 220 271 269 286 297 273 263 281 280 286 297 285 264 267 269 278 276 271 247 247 239 232 226 226 224 225 224 222 221 222 230 243 257 272 283 292 294 296 306 315 311 311 310 314 317 317 314
287 264 299 262 270 281 261 272 280 297 292 284 283 280 280 285 289 290 281 263 239 237 239 234 224 223 222 223 223 225 229 233 239 248 257 272 285 289 292 293 296 299 301 302 298 302 307 308 310
267 277 265 252 291 285 271 287 269 288 289 293 287 284 290 294 289 282 274 242 223 229 237 232 222 224 222 222 225 227 232 237 241 250 262 272 279 286 286 286 286 290 297 301 303 290 298 304 303
268 256 253 256 246 270 294 272 291 301 307 296 292 286 289 292 299 275 256 226 223 224 232 224 222 224 220 221 224 228 234 240 246 254 260 268 273 276 279 281 276 290 288 293 289 292 287 298 300
271 262 262 245 248 254 266 275 285 303 291 302 306 294 284 286 289 251 244 236 226 220 217 220 224 228 221 225 229 232 236 243 249 252 257 260 269 282 288 295 300 282 291 273 293 292 289 292 293